Home > Weather > Long Beach > Past weeks

Flag for USA Weather for the Past 2 Weeks in Long Beach, California, USA

Now
59 °F

Overcast.


Feels Like: 59 °F
Forecast: 57 / 67 °F
Wind: 5 mph from Southeast

Location: Long Beach Airport

Current Time: May 4, 2016 at 4:56:28 AM

Latest Report: May 4, 2016 at 3:53 AM


Visibility: 8 mi

Pressure: 29.92 "Hg

Humidity: 90%

Dew Point: 56 °F

Location of Long BeachLocation

Historic Weather in Long Beach — Graph

°F

Long Beach Temperature Yesterday

Maximum temperature yesterday: 78 °F (at 3:53 PM)
Minimum temperature yesterday: 58 °F (at 5:53 AM)
Average temperature yesterday: 65 °F

High & Low Weather Summary for the Past Weeks

 TemperatureHumidityPressure
High89 °F (Apr 19, 3:53 PM)90% (Apr 22, 12:53 AM)30.04 "Hg (Apr 22, 12:53 AM)
Low51 °F (Apr 26, 4:53 AM)9% (Apr 19, 3:53 PM)29.72 "Hg (Apr 27, 11:53 PM)
Average64 °F62%29.91 "Hg
* Reported Apr 19 3:53 AM — May 4 3:53 AM, Long Beach, Weather by CustomWeather, © 2016

Note: Actual official high and low records may vary slightly from our data, if they occured in-between our weather recording intervals... More about our weather records

Advertising

Long Beach Weather History for the Previous 24 Hours

Scroll right to see more
 ConditionsComfort  
Time TempWeatherWind HumidityBarometerVisibility
3:53 AM
Wed, May 4
59 °FOvercast.5 mph90%29.92 "Hg8 mi
2:53 AM60 °FOvercast.5 mph86%29.95 "Hg8 mi
1:53 AM59 °FOvercast.No wind84%29.95 "Hg9 mi
12:53 AM60 °FClear.No wind83%29.96 "Hg9 mi
11:53 PM
Tue, May 3
60 °FClear.No wind80%29.96 "Hg9 mi
10:53 PM59 °FClear.5 mph87%29.96 "Hg10 mi
9:53 PM60 °FClear.3 mph83%29.96 "Hg9 mi
8:53 PM60 °FClear.8 mph83%29.94 "Hg10 mi
7:53 PM62 °FSunny.12 mph80%29.92 "Hg10 mi
6:53 PM65 °FSunny.9 mph70%29.90 "Hg10 mi
5:53 PM66 °FSunny.13 mph70%29.89 "Hg10 mi
4:53 PM74 °FSunny.12 mph50%29.89 "Hg10 mi
3:53 PM78 °FSunny.6 mph43%29.89 "Hg10 mi
2:53 PM75 °FSunny.10 mph50%29.92 "Hg10 mi
1:53 PM75 °FSunny.8 mph52%29.93 "Hg10 mi
12:53 PM76 °FSunny.8 mph50%29.94 "Hg10 mi
11:53 AM73 °FSunny.7 mph55%29.96 "Hg10 mi
10:53 AM71 °FSunny.6 mph59%29.97 "Hg9 mi
9:53 AM69 °FSunny.5 mph61%29.97 "Hg9 mi
8:53 AM64 °FSunny.No wind75%29.98 "Hg8 mi
7:53 AM62 °FSunny.No wind80%29.97 "Hg8 mi
6:53 AM58 °FClear.No wind90%29.97 "Hg8 mi
5:53 AM58 °FClear.No wind87%29.95 "Hg9 mi
4:53 AM59 °FClear.No wind87%29.95 "Hg9 mi
Weather by CustomWeather, © 2016

See weather overviewHow to use our weather pages